This is the latest recevied weather packets stored in our database for station/object N5DGC. If no packets are shown the sender has not sent any weather packets the latest 10 day(s).
| Time | Temp. | Humidity | Pressure | Rain* | Wind** | Luminosity | Snow |
|---|---|---|---|---|---|---|---|
| 1777512149 | 23.33° C | 8% | 1231.2 hPa | 0 mm | - | 26 W/m² | - |
| 1777511847 | 23.33° C | 9% | 1231.2 hPa | 0 mm | - | 23 W/m² | - |
| 1777511544 | 23.89° C | 9% | 1231.2 hPa | 0 mm | - | 37 W/m² | - |
| 1777511241 | 23.89° C | 9% | 1231.2 hPa | 0 mm | - | 43 W/m² | - |
| 1777510936 | 24.44° C | 9% | 1231.5 hPa | 0 mm | - | 59 W/m² | - |
| 1777510634 | 24.44° C | 9% | 1231.2 hPa | 0 mm | - | 74 W/m² | - |
| 1777510330 | 25° C | 8% | 1231.3 hPa | 0 mm | - | 54 W/m² | - |
| 1777510027 | 25.56° C | 8% | 1231.4 hPa | 0 mm | - | 97 W/m² | - |
| 1777509723 | 25.56° C | 8% | 1231.2 hPa | 0 mm | - | 114 W/m² | - |
| 1777509418 | 25° C | 8% | 1231.1 hPa | 0 mm | - | 123 W/m² | - |
| 1777509116 | 25.56° C | 8% | 1231.4 hPa | 0 mm | - | 81 W/m² | - |
| 1777508813 | 26.11° C | 8% | 1231.2 hPa | 0 mm | - | 139 W/m² | - |
| 1777508510 | 26.11° C | 8% | 1231.2 hPa | 0 mm | - | 181 W/m² | - |
| 1777508207 | 26.11° C | 8% | 1231.4 hPa | 0 mm | - | 207 W/m² | - |
| 1777507904 | 26.11° C | 8% | 1231.4 hPa | 0 mm | - | 177 W/m² | - |
| 1777507601 | 26.11° C | 8% | 1231.3 hPa | 0 mm | - | 214 W/m² | - |
| 1777507298 | 26.11° C | 8% | 1231.4 hPa | 0 mm | - | 244 W/m² | - |
| 1777506995 | 26.11° C | 8% | 1231.4 hPa | 0 mm | - | 301 W/m² | - |
| 1777506692 | 26.11° C | 8% | 1231 hPa | 0 mm | - | 226 W/m² | - |
| 1777506389 | 26.67° C | 8% | 1231.2 hPa | 0 mm | - | 167 W/m² | - |
| 1777506085 | 27.22° C | 8% | 1231.2 hPa | 0 mm | - | 321 W/m² | - |
| 1777505781 | 27.22° C | 8% | 1231 hPa | 0 mm | - | 333 W/m² | - |
| 1777505478 | 27.22° C | 8% | 1230.7 hPa | 0 mm | - | 360 W/m² | - |
| 1777505174 | 27.22° C | 8% | 1231.2 hPa | 0 mm | - | 385 W/m² | - |
| 1777504871 | 27.78° C | 8% | 1230.8 hPa | 0 mm | - | 403 W/m² | - |
* Rain latest hour (hover to see other rain measurements)
** Current wind speed in m/s (hover to see current wind gust speed)